Regional Weather Roundup
Issued by NWS

Home | Current Version | Previous Version | Graphics & Text | Print | Product List | Glossary On
Versions: 1 2 3 4 5 6 7 8 9 10 11 12 13 14 15 16 17 18 19 20 21 22 23 24 25 26 27 28 29 30 31 32 33 34 35 36 37 38 39 40 41 42 43 44 45 46 47 48 49 50
000
ASUS43 KLSX 070759
RWRMO

WEATHER SUMMARY FOR MISSOURI
NATIONAL WEATHER SERVICE SPRINGFIELD MO
300 AM CDT THU MAY 07 2015

NOTE: "FAIR" INDICATES FEW OR NO CLOUDS BELOW 12,000 FEET WITH NO
       SIGNIFICANT WEATHER AND/OR OBSTRUCTIONS TO VISIBILITY.
       CURRENT SKY AND/OR WEATHER CONDITIONS ARE NOT AVAILABLE FOR
       CHILLICOTHE AND FARMINGTON.

MOZ001>031-035>038-043-044-053-054-070900-
...NORTHERN AND WESTERN MISSOURI...

CITY           SKY/WX    TMP DP  RH WIND       PRES   REMARKS
KANSAS CTY INT MOCLDY    69  57  65 S21G33    29.81F
KANSAS C DTWN  MOCLDY    71  57  61 S16G35    29.82F
LEE`S SUMMIT   PTCLDY    69  56  62 S18G28    29.84F
ST JOSEPH      MOCLDY    70  57  63 S21G35    29.78F
CHILLICOTHE      N/A     69  56  62 S10       29.89F
KIRKSVILLE     CLEAR     62  56  80 S10       29.94F

$$
MOZ066>068-077>081-088>096-101>105-070900-
...SOUTHWEST MISSOURI...

CITY           SKY/WX    TMP DP  RH WIND       PRES   REMARKS
SPRINGFIELD    CLOUDY    67  56  67 S14       29.94F
JOPLIN         CLOUDY    70  58  65 S15G21    29.91S

$$
MOZ032>034-039>042-045>050-055>058-069>072-070900-
...CENTRAL MISSOURI...

CITY           SKY/WX    TMP DP  RH WIND       PRES   REMARKS
COLUMBIA       PTCLDY    65  54  67 SE7       29.96F
JEFFERSON CITY PTCLDY    66  54  65 E10       29.96F
ROLLA          PTCLDY    65  51  60 SE9       29.99S
SEDALIA        MOCLDY    70  54  56 S15G25    29.92F
OSAGE BEACH    PTCLDY    66  54  63 S5        29.96F

$$
MOZ051-052-059>065-070900-
...EAST CENTRAL MISSOURI...

CITY           SKY/WX    TMP DP  RH WIND       PRES   REMARKS
ST LOUIS INTL  MOCLDY    72  51  47 SE9       30.02S
SPIRIT OF STL  MOCLDY    64  52  64 CALM      30.00S
ST CHARLES     MOCLDY    65  52  62 SE9       30.00F

$$
MOZ072>076-082>087-097>100-106>115-070900-
...SOUTH CENTRAL AND SOUTHEAST MISSOURI...

CITY           SKY/WX    TMP DP  RH WIND       PRES   REMARKS
CAPE GIRARDEAU CLEAR     60  52  74 S6        30.04S
FARMINGTON     MOCLDY    63  50  63 CALM      30.07F
POPLAR BLUFF   MOCLDY    58  52  80 CALM      30.01F
WEST PLAINS    MOCLDY    66  51  58 SE7       30.03S

$$



USA.gov is the U.S. government's official web portal to all federal, state and local government web resources and services.